Flag for Austria Weather past 2 weeks in Graz, Styria, Austria

Now
73 °F

Passing clouds.


Feels Like: 76 °F
Forecast: 54 / 80 °F
Wind: 5 mph from South

Location: Graz-Thalerhof-Flughafen

Current Time: Jun 2, 2015 at 11:40:31 AM

Latest Report: Jun 2, 2015 at 10:50 AM


Visibility: N/A

Pressure: 30.12 "Hg

Humidity: 65%

Dew point: 61 °F

Location of GrazLocation

Historic Weather in Graz — Graph

°F

Graz temperature yesterday

Maximum temperature yesterday: 77 °F (at 3:50 PM)
Minimum temperature yesterday: 50 °F (at 4:20 AM)
Average temperature yesterday: 64 °F

Past Weeks' High & Low Weather Summary

 TemperatureHumidityPressure
High79 °F (May 19, 1:50 PM)100% (May 19, 2:20 AM)30.15 "Hg (May 19, 2:20 AM)
Low43 °F (May 29, 4:50 AM)36% (May 29, 3:20 PM)29.74 "Hg (May 19, 1:20 PM)
Average58 °F73%29.97 "Hg
* Reported May 18 9:20 AM — Jun 2 9:50 AM, Graz, Weather by CustomWeather, © 2015

Note: Actual official high and low records may vary slightly from our data, if they occured in-between our weather recording intervals... More about our weather records

Advertising

Graz weather history for previous 24 hours

 ConditionsComfort  
Time TempWeatherWind HumidityBarometerVisibility
9:50 AM
Tue, Jun 2
72 °FPassing clouds.3 mph65%30.09 "HgN/A
9:20 AM70 °FPassing clouds.2 mph69%30.09 "HgN/A
8:50 AM68 °FPassing clouds.1 mph69%30.09 "HgN/A
8:20 AM64 °FPassing clouds.1 mph78%30.09 "HgN/A
7:50 AM63 °FPassing clouds.2 mph83%30.09 "HgN/A
7:20 AM61 °FPassing clouds.1 mph88%30.09 "HgN/A
6:50 AM59 °FSunny.1 mph88%30.07 "Hg10 mi
6:20 AM55 °FSunny.2 mph100%30.07 "Hg10 mi
5:20 AM55 °FCool.1 mph94%30.07 "Hg3 mi
4:50 AM55 °FCool.1 mph94%30.07 "Hg1 mi
4:20 AM55 °FCool.No wind94%30.07 "Hg3 mi
3:50 AM55 °FCool.No wind94%30.07 "Hg4 mi
3:20 AM55 °FCool.1 mph94%30.07 "HgN/A
2:50 AM55 °FCool.1 mph94%30.07 "Hg6 mi
2:20 AM55 °FCool.2 mph100%30.07 "HgN/A
1:50 AM55 °FCool.1 mph100%30.07 "HgN/A
1:20 AM59 °FClear.2 mph94%30.07 "Hg10 mi
12:50 AM57 °FClear.2 mph94%30.07 "Hg10 mi
12:20 AM61 °FCool.3 mph88%30.07 "HgN/A
11:50 PM
Mon, Jun 1
61 °FCool.2 mph88%30.07 "HgN/A
11:20 PM61 °FPassing clouds.5 mph88%30.07 "HgN/A
10:50 PM63 °FPassing clouds.5 mph83%30.07 "HgN/A
10:20 PM64 °FPassing clouds.3 mph78%30.07 "HgN/A
9:50 PM64 °FPassing clouds.2 mph83%30.07 "HgN/A
9:20 PM64 °FScattered clouds.2 mph78%30.04 "HgN/A
8:50 PM64 °FScattered clouds.2 mph78%30.04 "HgN/A
8:20 PM68 °FScattered clouds.2 mph69%30.04 "HgN/A
7:50 PM68 °FScattered clouds.5 mph69%30.04 "HgN/A
7:20 PM68 °FThundershowers. Partly sunny.5 mph73%30.04 "HgN/A
6:50 PM72 °FPartly sunny.7 mph65%30.04 "HgN/A
6:20 PM75 °FThundershowers. Scattered clouds.6 mph54%30.04 "HgN/A
5:50 PM75 °FScattered clouds.6 mph50%30.04 "HgN/A
5:20 PM75 °FPartly sunny.5 mph50%30.04 "HgN/A
4:50 PM75 °FPartly sunny.6 mph50%30.04 "HgN/A
4:20 PM77 °FPartly sunny.8 mph47%30.04 "HgN/A
3:50 PM77 °FPartly sunny.5 mph47%30.04 "HgN/A
3:20 PM75 °FPartly sunny.7 mph47%30.04 "HgN/A
2:50 PM75 °FPartly sunny.5 mph44%30.04 "HgN/A
2:20 PM75 °FPartly sunny.8 mph47%30.04 "HgN/A
1:50 PM75 °FPartly sunny.7 mph50%30.07 "HgN/A
1:20 PM73 °FPartly sunny.5 mph50%30.07 "HgN/A
12:50 PM73 °FPartly sunny.6 mph53%30.07 "HgN/A
12:20 PM72 °FPartly sunny.3 mph53%30.07 "HgN/A
11:20 AM70 °FPartly sunny.3 mph60%30.07 "HgN/A
Weather by CustomWeather, © 2015

See weather overviewHow to use our weather pages